Temp
18 19 19 18 18 19 19 18 20 18 18 17 14 13 10 9 8 7 7 7 6 6 4 3 1 0 2 1 1 0 -0 -1 -1 -2 -3 -3 -4 -4 -4 -5 -5 -5 -5 -6
18 18 19 19 18 19 18 17 18 18 18 14 12 11 10 9 8 8 7 7 6 5 4 1 1 1 2 1 0 -0 -0 -1 -2 -2 -3 -4 -4 -4 -5 -5 -5 -5 -6 -6
18 17 18 19 18 18 17 16 17 18 17 14 13 12 11 10 9 9 8 7 6 5 3 1 0 2 1 1 0 -0 -1 -2 -2 -3 -3 -4 -4 -5 -5 -5 -5 -5 -6 -6
18 17 17 18 17 18 17 16 16 16 15 14 13 10 10 10 10 8 7 7 6 3 2 1 2 2 1 0 -0 -1 -1 -2 -3 -3 -4 -4 -4 -5 -5 -5 -5 -5 -5 -6
16 16 16 18 18 18 18 17 16 16 14 12 11 11 10 8 9 8 8 6 4 3 2 2 2 1 1 0 -1 -1 -2 -3 -3 -4 -4 -4 -4 -5 -5 -5 -5 -5 -5 -6
13 16 17 18 18 17 18 17 16 15 14 13 12 15 12 8 8 7 4 4 3 2 2 2 1 1 0 -0 -1 -2 -2 -3 -4 -4 -4 -4 -5 -5 -5 -5 -5 -5 -5 -6
15 16 17 17 17 17 18 17 15 15 14 13 14 11 8 7 6 5 3 3 2 2 3 2 1 0 -0 -1 -1 -2 -2 -3 -3 -4 -4 -5 -5 -5 -5 -5 -5 -5 -5 -5
15 16 17 15 17 18 17 14 14 13 12 9 7 7 7 6 5 4 4 2 2 2 2 1 0 0 -0 -1 -2 -2 -2 -3 -3 -4 -4 -4 -4 -4 -5 -5 -5 -5 -5 -5
17 17 14 14 15 14 14 15 13 12 9 8 7 7 6 6 4 4 4 3 2 2 1 0 -0 -0 -0 -2 -2 -2 -2 -2 -3 -4 -4 -4 -4 -4 -4 -5 -5 -5 -5 -6
15 15 14 14 13 13 13 12 11 10 9 8 7 7 6 5 4 3 3 2 2 1 1 -0 -1 -0 -1 -1 -1 -1 -2 -2 -3 -3 -3 -3 -4 -4 -5 -5 -6 -5 -6 -6
13 13 14 14 13 12 10 10 9 8 8 8 7 6 6 5 4 3 3 2 1 1 1 -1 -0 -0 -1 -1 -1 -2 -2 -2 -3 -3 -3 -3 -4 -5 -5 -6 -7 -7 -7 -7
16 15 15 14 12 11 11 10 9 8 7 6 7 6 5 5 4 3 2 1 1 0 0 -0 -1 -1 -1 -1 -1 -2 -2 -2 -3 -3 -3 -3 -4 -4 -5 -5 -6 -7 -8 -8
14 12 12 11 11 10 10 9 8 8 7 6 5 5 5 4 3 2 1 1 1 1 0 -0 -1 -1 -1 -1 -1 -1 -2 -2 -3 -3 -3 -4 -4 -4 -5 -5 -5 -6 -7 -7
11 12 12 12 11 9 8 7 6 6 6 5 5 5 3 3 1 1 1 1 1 0 -0 -1 -1 -1 -1 -1 -1 -1 -2 -2 -3 -3 -4 -4 -5 -5 -5 -6 -6 -6 -7 -7
10 10 11 8 7 6 6 6 6 6 5 4 4 3 2 1 1 1 1 1 0 -0 -1 -1 -1 -1 -1 -1 -1 -2 -2 -3 -3 -4 -4 -4 -4 -5 -5 -5 -6 -6 -6 -7
8 8 9 8 7 7 7 6 6 5 4 3 2 2 2 1 1 0 -0 0 -1 -1 -1 -1 -1 -1 -1 -1 -2 -2 -2 -3 -3 -4 -4 -4 -5 -5 -5 -6 -6 -6 -7 -8
8 7 7 7 7 7 7 6 5 4 3 2 1 1 1 -0 -1 -1 -1 -1 -0 -1 -1 -1 -1 -1 -1 -1 -2 -2 -3 -3 -3 -4 -4 -4 -5 -5 -5 -6 -6 -7 -7 -8
9 8 8 8 7 6 4 4 3 2 2 1 1 0 0 -0 -1 -2 -1 -1 -1 -1 -1 -1 -1 -1 -2 -2 -2 -2 -2 -3 -3 -4 -4 -5 -5 -5 -6 -6 -6 -7 -7 -8
7 6 6 6 5 4 3 2 2 2 1 1 1 -0 -0 -0 -1 -1 -1 -1 -1 -1 -2 -2 -2 -2 -2 -2 -2 -2 -2 -3 -3 -4 -4 -5 -5 -6 -6 -6 -7 -7 -7 -8
2 3 4 3 3 3 1 1 1 1 0 1 0 -1 -2 -2 -1 -1 -1 -2 -2 -1 -2 -2 -2 -2 -2 -2 -2 -2 -2 -3 -3 -4 -4 -5 -6 -6 -6 -7 -7 -7 -7 -8
-0 -0 -0 -1 -1 1 2 1 1 0 -0 1 1 -0 -1 -2 -2 -1 -2 -2 -2 -2 -2 -2 -2 -2 -2 -2 -2 -2 -2 -2 -3 -3 -4 -5 -6 -6 -6 -7 -7 -7 -7 -7
-0 -1 -1 -1 -2 -2 -1 -0 1 -0 -0 -0 -0 -1 -1 -2 -2 -2 -2 -2 -2 -2 -2 -2 -2 -2 -2 -2 -2 -2 -2 -3 -3 -4 -4 -5 -6 -6 -6 -7 -7 -7 -7 -7
0 -0 -1 -1 -1 -2 -2 -1 -1 0 0 -0 -1 -1 -2 -2 -2 -2 -2 -2 -2 -2 -2 -2 -2 -2 -2 -2 -2 -2 -3 -3 -4 -4 -5 -5 -6 -6 -6 -6 -6 -6 -7 -7
-0 -1 -1 -2 -2 -2 -2 -3 -2 -1 -1 -1 -1 -1 -1 -2 -2 -2 -2 -2 -2 -2 -2 -2 -3 -3 -2 -2 -3 -3 -3 -4 -4 -5 -5 -5 -6 -6 -6 -6 -6 -6 -6 -6
-1 -1 -2 -2 -1 -1 -2 -3 -3 -3 -2 -2 -2 -2 -2 -1 -1 -2 -2 -2 -2 -2 -2 -3 -3 -3 -3 -3 -4 -4 -4 -5 -5 -5 -6 -6 -6 -6 -6 -7 -7 -7 -6 -6
-1 -1 -2 -1 -2 -3 -3 -3 -3 -3 -3 -3 -2 -2 -2 -1 -2 -2 -3 -3 -3 -3 -3 -4 -4 -4 -4 -4 -5 -5 -5 -5 -6 -6 -6 -6 -7 -7 -7 -7 -7 -7 -7 -6
-2 -2 -2 -3 -3 -3 -3 -3 -3 -3 -2 -2 -2 -2 -2 -2 -2 -3 -3 -4 -4 -5 -5 -5 -6 -6 -5 -6 -5 -5 -5 -5 -6 -6 -6 -6 -7 -7 -7 -7 -7 -7 -7 -6
Height
825 821 820 827 825 819 821 829 827 835 835 839 846 849 856 862 866 869 872 876 879 882 886 889 891 890 890 891 891 891 889 888 885 883 881 877 873 870 867 864 859 856 852 849
829 826 822 827 828 826 829 833 831 833 836 846 852 855 858 861 865 868 872 876 879 883 885 888 890 891 891 891 892 891 890 889 886 884 881 878 874 871 868 864 859 856 852 849
832 833 829 835 834 833 836 838 836 837 841 845 848 851 855 859 863 867 871 875 879 881 885 887 889 891 892 893 893 892 891 889 887 885 882 879 876 873 869 865 861 857 853 849
834 836 849 835 831 830 834 839 839 839 842 846 848 856 858 859 860 866 871 875 878 882 885 887 890 892 893 893 893 893 892 891 889 886 884 881 878 874 870 866 862 858 854 850
839 843 843 833 831 833 833 839 837 838 844 850 854 855 859 863 864 867 870 875 879 882 885 888 891 892 893 894 894 894 893 892 891 888 886 883 880 876 872 868 864 860 856 851
849 844 845 831 827 828 829 840 836 839 843 848 851 843 854 866 867 871 875 877 880 884 887 890 892 894 895 895 895 895 895 894 893 890 888 885 882 878 875 871 867 862 858 853
842 840 836 829 828 829 837 843 838 840 842 846 846 855 865 869 872 875 877 881 884 887 889 891 893 895 896 896 897 897 897 896 894 892 890 887 884 880 876 872 868 864 859 854
837 837 840 831 829 832 834 839 840 842 847 854 859 865 869 872 875 879 881 884 886 889 891 893 895 896 898 898 898 898 898 897 896 894 891 888 885 882 878 874 870 866 861 856
827 828 833 833 830 835 835 836 841 844 852 856 861 867 872 875 878 881 884 886 889 891 893 895 897 898 899 899 900 900 899 898 897 895 892 889 886 883 880 876 873 869 864 859
828 833 833 834 836 836 837 840 845 848 854 858 862 869 873 878 881 884 886 888 890 893 895 897 898 899 900 900 901 901 900 899 898 896 894 891 888 886 883 879 876 873 868 863
835 834 834 835 837 840 843 846 849 853 856 860 864 871 875 880 883 886 888 890 892 894 896 898 899 900 901 902 902 902 901 901 899 897 895 893 890 887 885 883 880 877 873 868
820 821 825 833 839 842 843 849 852 854 860 865 868 872 877 880 883 886 888 891 894 896 897 899 901 902 903 903 903 903 903 902 900 899 896 894 892 890 887 885 882 879 875 871
820 826 829 835 840 844 846 852 855 857 861 866 872 875 879 882 885 887 890 893 895 897 899 901 903 904 904 904 904 904 904 903 902 900 898 896 894 891 888 886 883 880 876 872
825 828 835 837 842 847 849 855 858 862 866 870 874 878 881 884 887 890 892 894 896 899 901 903 905 905 905 906 906 905 905 904 903 901 899 898 896 893 891 888 885 882 878 874
829 829 829 840 846 851 854 857 861 866 870 874 877 879 882 885 889 891 894 896 898 901 903 905 906 907 907 907 907 907 906 906 904 903 901 899 897 895 893 890 888 885 881 876
834 835 838 842 849 853 856 861 863 869 873 877 879 882 885 888 891 894 897 899 900 903 905 907 908 908 909 909 909 908 907 907 905 904 903 901 899 897 895 892 890 887 884 880
834 842 845 848 851 855 858 862 865 869 874 878 881 884 887 890 893 896 899 901 903 905 907 908 909 910 910 910 909 909 909 908 907 906 905 903 901 900 897 895 893 890 887 883
830 833 838 841 849 855 861 864 868 872 875 879 882 886 890 892 895 899 901 903 905 907 909 910 911 911 911 911 911 911 910 909 909 907 906 905 903 902 900 897 895 892 889 885
833 836 842 847 852 856 861 866 870 874 878 881 884 889 892 895 898 900 903 905 907 909 910 911 912 912 912 913 913 912 912 911 910 909 908 906 904 903 901 899 897 895 891 888
840 843 847 851 856 859 863 868 872 876 881 884 887 891 894 897 900 903 905 907 909 909 910 911 912 913 913 913 913 913 913 912 911 910 909 907 906 904 902 900 898 897 894 891
846 849 853 856 860 864 867 871 874 879 884 887 889 892 895 899 903 905 906 908 909 910 911 912 912 913 914 914 914 914 913 913 912 911 910 908 907 905 904 902 900 898 895 893
851 854 857 860 864 869 873 876 879 882 886 889 892 894 898 902 904 906 907 908 910 911 911 912 912 913 914 914 914 914 914 914 913 912 911 910 908 907 905 903 901 899 896 894
855 858 860 864 867 872 876 880 883 886 888 891 894 897 900 903 905 907 908 909 910 911 912 912 912 913 914 915 914 914 914 914 914 913 912 910 909 908 906 904 902 900 898 895
857 861 864 868 871 875 879 884 887 890 892 894 897 899 901 904 906 907 909 910 911 912 913 913 914 915 915 916 916 915 915 915 914 913 912 911 909 908 907 905 903 901 899 896
859 863 867 870 874 878 882 886 889 892 894 896 898 901 903 905 906 908 909 911 912 913 914 915 915 916 916 916 916 916 915 915 914 913 912 911 910 909 907 906 904 901 899 897
861 865 869 872 875 879 883 887 890 893 895 898 900 903 904 906 908 909 911 913 913 914 915 916 916 916 916 916 916 916 916 915 915 914 913 912 911 909 908 906 904 902 900 898
864 866 870 873 876 879 883 886 888 892 896 899 901 904 906 908 910 911 913 914 915 915 916 916 916 916 916 917 917 918 917 917 916 915 914 913 911 910 908 906 904 903 901 899
Wind_Speed
6 8 8 5 7 11 8 3 3 2 2 5 6 2 4 7 8 10 10 11 10 11 12 12 7 5 3 1 2 3 5 7 10 11 12 13 14 15 15 15 16 17 17 17
6 9 9 10 7 7 7 4 5 4 4 2 3 5 6 7 9 9 10 10 11 13 14 10 7 5 5 1 2 3 6 9 9 11 12 13 14 14 15 17 18 17 17 18
4 2 3 3 4 3 3 3 2 4 2 2 2 2 3 6 7 9 10 12 11 14 12 10 9 7 2 4 4 5 6 8 10 11 12 14 14 15 17 19 19 19 18 19
3 2 1 2 1 2 7 2 1 1 1 1 3 4 4 1 8 9 11 12 14 13 11 10 8 6 5 6 5 5 7 8 9 10 12 14 15 17 18 19 19 20 20 20
2 2 1 2 3 3 3 2 1 1 3 4 7 4 5 4 5 8 11 12 13 14 13 11 9 6 8 6 5 6 7 7 9 11 13 14 16 17 19 20 20 19 19 21
2 3 3 1 0 1 3 2 0 2 3 6 6 2 3 5 11 13 13 14 14 14 13 10 7 9 8 6 5 6 5 7 9 11 11 13 15 17 17 18 19 19 20 20
2 2 1 2 2 3 1 2 2 1 3 6 2 3 10 12 12 12 11 12 13 12 10 8 10 9 7 6 6 5 5 6 8 9 10 13 14 16 17 19 19 20 21 20
2 2 2 1 3 2 2 2 4 3 4 7 11 12 12 11 11 11 13 12 11 11 9 9 9 7 6 6 5 4 4 5 7 9 10 12 14 16 17 19 19 21 22 22
1 2 1 2 4 3 2 4 3 5 7 13 14 13 11 9 12 12 12 12 10 11 11 9 6 4 6 5 4 2 3 5 8 9 10 12 14 16 17 18 19 20 22 23
4 2 4 5 6 5 5 7 7 10 12 11 14 12 11 12 12 11 12 11 10 11 10 8 6 5 5 5 3 1 3 6 7 9 11 12 13 15 16 17 18 20 21 22
3 2 3 3 5 7 10 10 12 11 9 13 14 11 12 12 12 12 10 9 10 10 9 8 7 7 7 4 1 2 3 5 6 8 11 12 11 14 14 14 15 17 18 18
2 7 2 5 7 9 11 10 10 12 11 12 15 14 15 12 12 11 11 11 10 9 10 9 9 8 4 3 3 2 3 5 6 8 10 11 11 12 15 16 16 16 16 17
3 5 7 12 9 9 12 9 11 13 16 16 13 16 13 13 10 12 12 11 10 10 10 10 9 4 2 1 2 3 4 5 6 8 9 11 12 13 15 16 17 19 19 20
11 11 8 4 6 11 17 16 17 16 15 16 17 12 12 13 13 12 12 11 11 11 10 10 6 5 5 5 4 5 5 6 7 8 9 10 11 11 12 14 16 17 18 22
5 4 8 16 17 15 18 19 15 13 16 15 12 13 14 17 15 14 13 13 13 11 11 9 6 5 4 4 4 5 6 6 7 8 9 10 10 10 12 12 13 15 16 19
9 12 13 14 13 13 15 13 14 11 14 13 12 13 14 16 17 16 14 13 12 11 10 7 6 5 5 4 4 4 5 7 8 8 8 9 10 11 12 13 13 14 16 18
14 7 11 10 11 11 9 11 15 15 14 13 15 16 19 20 18 16 14 9 12 11 8 6 6 5 5 6 5 5 6 7 9 8 8 10 10 10 11 12 13 13 13 16
4 10 8 16 14 11 11 13 15 16 16 16 19 20 20 18 18 16 13 13 12 9 7 6 5 4 3 5 7 7 7 7 8 8 8 9 10 9 11 11 12 13 13 16
10 16 17 17 16 17 17 16 17 18 19 21 22 18 15 17 17 15 13 13 10 6 6 6 4 4 3 4 5 6 7 7 7 9 9 10 9 9 10 12 12 13 13 14
16 20 23 20 19 22 22 19 21 21 20 21 21 19 18 16 15 13 13 11 6 5 5 4 3 4 5 4 5 5 5 8 7 9 10 10 10 9 10 11 12 13 13 13
16 17 18 19 19 19 22 22 24 23 20 19 19 19 19 17 13 12 11 8 5 5 5 4 2 2 2 2 4 3 3 5 7 7 9 11 10 10 10 10 11 12 12 13
15 17 18 19 19 20 18 18 22 23 20 17 17 19 19 16 13 11 9 6 6 5 4 4 3 4 4 4 5 3 4 4 6 7 9 10 8 8 9 10 11 12 12 13
15 16 17 18 18 18 18 20 21 20 20 18 18 17 13 13 11 10 7 6 7 6 5 4 4 6 3 3 2 3 3 4 5 7 9 9 9 10 10 11 13 14 14 14
16 16 16 17 19 20 20 15 17 18 18 17 14 13 15 14 11 10 10 9 9 7 7 6 7 6 5 6 5 5 5 5 7 8 8 8 9 10 11 12 13 14 14 14
16 17 18 19 18 16 18 17 18 16 16 15 14 12 11 10 9 10 9 11 9 8 9 8 6 5 4 4 5 5 6 6 7 8 9 9 10 10 11 12 12 13 14 14
17 16 15 14 14 18 17 16 15 13 13 14 14 12 13 14 15 15 13 10 9 8 8 7 6 4 4 4 5 6 6 7 8 9 9 9 10 11 12 12 13 13 13 14
15 15 14 13 13 16 16 15 16 15 15 17 17 16 18 17 14 12 9 8 7 6 6 7 7 7 7 7 8 10 10 10 10 11 12 12 13 12 13 14 14 14 14 15
Wind_Direction
53 71 89 88 51 48 74 63 58 103 51 14 12 57 145 149 150 152 156 155 151 145 137 131 140 125 166 145 75 50 42 28 23 14 8 5 8 7 4 2 1 356 355 354
68 71 77 77 52 71 64 54 87 91 76 29 81 108 144 165 168 168 163 159 156 148 146 158 156 161 164 122 100 66 43 33 19 10 10 11 11 10 9 8 6 2 359 354
159 348 91 64 10 65 94 57 57 60 31 162 130 133 167 179 178 171 168 167 163 165 160 159 164 171 167 140 98 64 48 32 15 16 21 19 17 16 14 12 9 6 1 354
126 134 127 83 46 81 114 102 109 115 128 48 102 101 73 175 172 167 164 167 167 150 155 157 160 155 132 128 96 68 51 28 25 29 27 22 19 19 15 11 8 4 360 357
119 84 326 227 203 184 186 96 199 111 140 126 139 159 73 37 146 159 163 153 139 153 158 145 153 139 142 118 88 75 48 40 38 35 29 22 20 16 13 10 6 2 0 358
127 128 175 191 65 273 153 113 88 150 148 160 175 309 84 86 117 113 111 131 142 145 142 142 140 144 134 112 99 79 61 52 42 34 28 21 16 12 8 9 5 3 1 1
133 114 261 239 91 146 215 51 102 116 125 154 165 44 126 119 103 107 117 123 131 131 136 141 143 144 125 117 103 91 70 45 34 24 16 14 9 8 6 7 7 8 5 5
119 114 161 29 128 165 107 93 120 98 91 94 112 120 122 115 112 113 118 123 129 127 130 138 143 138 125 118 116 101 67 37 24 16 12 6 5 4 6 8 9 8 5 5
192 115 80 23 99 97 97 103 96 103 111 127 126 130 129 125 122 121 121 124 131 132 129 128 135 133 129 132 127 104 41 16 10 6 6 6 7 7 8 11 11 7 5 2
155 155 116 101 85 76 72 99 87 111 127 135 133 140 128 118 119 121 129 131 135 133 129 122 121 125 125 124 124 40 5 357 356 2 5 8 13 12 13 12 9 7 4 1
84 101 119 95 93 117 94 98 105 107 121 131 134 132 127 127 130 134 129 128 138 136 131 126 124 122 121 103 40 346 357 2 1 7 11 11 16 17 16 18 14 8 4 1
184 162 127 131 131 130 113 116 121 121 114 122 134 131 135 134 137 138 135 137 136 132 138 131 132 125 104 57 61 27 31 17 14 11 13 13 11 12 20 23 20 23 17 14
137 118 92 117 110 115 111 120 119 120 129 128 126 133 135 131 131 132 132 136 143 143 139 134 134 121 360 310 40 49 39 24 20 22 18 14 13 9 3 8 22 26 25 23
115 113 96 134 129 115 115 113 108 108 115 124 130 131 129 127 128 128 133 138 140 139 137 138 123 88 78 87 77 54 42 38 29 26 21 16 13 10 6 5 4 4 14 22
46 43 108 116 111 108 117 121 111 114 120 115 120 126 134 134 133 132 132 135 135 135 136 133 112 85 82 80 73 60 49 34 27 25 23 17 13 10 7 8 8 4 4 10
97 102 113 114 122 124 124 124 121 126 125 122 117 122 132 134 132 131 133 136 134 140 137 129 109 97 84 65 58 50 46 37 27 25 20 16 13 11 7 7 8 8 7 6
114 111 120 123 134 140 142 137 136 138 133 126 129 133 135 132 129 131 133 126 129 130 131 123 110 102 80 52 65 66 53 34 29 26 24 17 13 12 7 6 7 9 6 5
112 118 129 144 145 135 127 129 131 138 139 139 138 141 140 141 139 139 135 136 135 127 127 125 107 98 83 59 60 60 49 41 33 27 19 15 12 9 5 3 4 4 4 5
114 117 125 130 135 131 130 131 136 139 141 142 140 139 137 137 137 137 136 136 132 117 130 129 101 82 70 90 58 51 45 40 32 24 23 16 12 11 8 4 358 358 359 3
99 110 121 121 130 134 132 136 137 136 140 141 136 133 131 133 136 133 133 124 117 122 141 142 118 94 88 80 50 44 48 40 33 28 23 18 15 9 5 5 6 3 1 5
104 109 109 113 117 128 134 141 140 138 142 143 141 140 136 135 136 133 133 131 138 103 118 122 131 147 111 52 24 40 34 37 28 19 13 10 9 9 10 8 6 2 2 3
116 115 114 117 120 123 132 136 139 137 138 138 138 139 137 137 134 127 127 130 134 139 110 96 88 136 120 63 41 65 47 31 16 9 3 3 6 7 4 4 3 2 1 2
123 122 121 121 126 126 129 135 138 138 136 139 140 143 143 146 141 136 122 116 120 121 113 90 91 122 99 0 26 39 21 16 14 5 360 1 3 1 360 356 354 355 358 360
125 123 121 126 128 127 125 132 133 133 131 130 132 142 146 143 126 124 116 120 118 103 102 97 109 97 87 77 65 46 32 15 359 356 0 360 358 359 357 356 359 358 358 360
130 131 133 137 135 133 133 136 131 130 129 124 125 130 136 146 139 136 132 132 120 106 104 105 101 91 79 60 35 21 19 20 21 17 16 13 7 2 0 357 357 357 356 358
141 140 143 146 145 146 146 147 140 142 137 129 124 127 130 126 121 118 118 116 114 109 107 100 88 69 51 41 43 45 39 35 30 25 19 12 7 3 357 355 354 356 358 0
143 145 142 140 151 157 158 157 150 147 145 140 126 128 128 121 113 109 109 109 99 99 90 69 52 53 68 71 68 55 46 42 37 30 26 24 21 13 5 4 6 8 10 11